TimeMST,TemperatureF,Dew PointF,Humidity,Sea Level PressureIn,VisibilityMPH,Wind Direction,Wind SpeedMPH,Gust SpeedMPH,PrecipitationIn,Events,Conditions,WindDirDegrees,DateUTC
12:03 AM,41.0,41.0,100,30.16,3.0,SSW,5.8,-,N/A,,Clear,200,2012-11-19 07:03:00
12:51 AM,43.0,41.0,93,30.08,10.0,West,3.5,-,N/A,,Clear,280,2012-11-19 07:51:00
1:36 AM,41.0,39.2,93,30.16,3.0,WNW,4.6,-,N/A,,Partly Cloudy,290,2012-11-19 08:36:00
1:51 AM,41.0,39.9,96,30.10,2.0,WNW,4.6,-,N/A,,Scattered Clouds,300,2012-11-19 08:51:00
1:57 AM,41.0,41.0,100,30.17,3.0,North,4.6,-,N/A,,Mostly Cloudy,360,2012-11-19 08:57:00
2:00 AM,41.0,39.2,93,30.17,1.8,NNW,3.5,-,N/A,,Mostly Cloudy,340,2012-11-19 09:00:00
2:07 AM,41.0,41.0,100,30.17,0.2,Calm,Calm,-,N/A,Fog,Fog,0,2012-11-19 09:07:00
2:51 AM,41.0,41.0,100,30.10,0.2,Calm,Calm,-,N/A,Fog,Fog,0,2012-11-19 09:51:00
3:12 AM,41.0,41.0,100,30.17,0.2,Calm,Calm,-,N/A,Fog,Fog,0,2012-11-19 10:12:00
3:34 AM,42.8,42.8,100,30.17,0.2,Calm,Calm,-,N/A,Fog,Fog,0,2012-11-19 10:34:00
3:51 AM,43.0,42.1,97,30.09,0.2,North,3.5,-,N/A,Fog,Fog,10,2012-11-19 10:51:00
4:51 AM,45.0,44.1,97,30.11,0.2,NE,4.6,-,N/A,Fog,Fog,40,2012-11-19 11:51:00
5:51 AM,43.0,43.0,100,30.12,0.2,Calm,Calm,-,N/A,Fog,Fog,0,2012-11-19 12:51:00
6:51 AM,42.1,42.1,100,30.15,0.2,West,4.6,-,N/A,Fog,Fog,260,2012-11-19 13:51:00
7:18 AM,41.0,39.2,93,30.22,1.0,West,3.5,-,N/A,,Mist,260,2012-11-19 14:18:00
7:25 AM,41.0,39.2,93,30.22,3.0,West,3.5,-,N/A,,Mostly Cloudy,260,2012-11-19 14:25:00
7:34 AM,41.0,41.0,100,30.22,6.0,Calm,Calm,-,N/A,,Partly Cloudy,0,2012-11-19 14:34:00
7:51 AM,42.1,42.1,100,30.17,9.0,Calm,Calm,-,N/A,,Clear,0,2012-11-19 14:51:00
8:51 AM,51.1,46.9,86,30.17,10.0,South,3.5,-,N/A,,Clear,170,2012-11-19 15:51:00
9:51 AM,57.0,48.0,72,30.18,10.0,SSE,3.5,-,N/A,,Clear,150,2012-11-19 16:51:00
10:51 AM,64.9,44.1,47,30.14,10.0,NW,3.5,-,N/A,,Clear,320,2012-11-19 17:51:00
11:51 AM,71.1,37.0,29,30.10,10.0,North,6.9,-,N/A,,Clear,360,2012-11-19 18:51:00
12:51 PM,73.0,26.1,17,30.06,10.0,NW,15.0,21.9,N/A,,Clear,310,2012-11-19 19:51:00
1:51 PM,73.0,26.1,17,30.05,10.0,NW,11.5,-,N/A,,Clear,310,2012-11-19 20:51:00
2:51 PM,73.9,25.0,16,30.04,10.0,West,8.1,-,N/A,,Clear,260,2012-11-19 21:51:00
3:51 PM,72.0,27.0,19,30.05,10.0,NW,9.2,-,N/A,,Clear,320,2012-11-19 22:51:00
4:51 PM,66.9,28.0,23,30.08,10.0,NW,4.6,-,N/A,,Clear,320,2012-11-19 23:51:00
5:51 PM,59.0,30.0,33,30.12,10.0,SSE,3.5,-,N/A,,Clear,160,2012-11-20 00:51:00
6:51 PM,55.0,30.0,38,30.14,10.0,West,4.6,-,N/A,,Clear,260,2012-11-20 01:51:00
7:51 PM,55.0,33.1,43,30.16,10.0,West,8.1,-,N/A,,Clear,260,2012-11-20 02:51:00
8:51 PM,53.1,32.0,45,30.15,10.0,West,6.9,-,N/A,,Clear,270,2012-11-20 03:51:00
9:51 PM,50.0,32.0,50,30.15,10.0,Calm,Calm,-,N/A,,Clear,0,2012-11-20 04:51:00
10:51 PM,48.9,32.0,52,30.14,10.0,NNE,4.6,-,N/A,,Clear,30,2012-11-20 05:51:00
11:51 PM,46.9,30.9,54,30.14,10.0,Calm,Calm,-,N/A,,Clear,0,2012-11-20 06:51:00